Regional Weather Roundup
Issued by NWS

Home | Current Version | Previous Version | Text Only | Print | Product List | Glossary Off
Versions: 1 2 3 4 5 6 7 8 9 10 11 12 13 14 15 16 17 18 19 20 21 22 23 24 25 26 27 28 29 30 31 32 33 34 35 36 37 38 39 40 41 42 43 44 45 46 47 48 49 50

000
ASUS43 KFSD 240110
RWRSD

WEATHER ROUNDUP FOR SOUTH DAKOTA
NATIONAL WEATHER SERVICE SIOUX FALLS SD
700 PM CST THU NOV 23 2017

NOTE: "FAIR" INDICATES FEW OR NO CLOUDS BELOW 12,000 FEET WITH NO
SIGNIFICANT WEATHER AND/OR OBSTRUCTIONS TO VISIBILITY.


SDZ001>005-009-010-012>017-240200-
NORTHWEST AND NORTH CENTRAL SOUTH DAKOTA

CITY           SKY/WX    TMP DP  RH WIND       PRES   REMARKS
FAITH            N/A     58  38  47 SW13      29.64F
MOBRIDGE       CLEAR     54  39  57 S9        29.56F
$$

SDZ012>016-024>037-041>051-057-063-072>074-240200-
SOUTHWEST AND SOUTH CENTRAL SOUTH DAKOTA

CITY           SKY/WX    TMP DP  RH WIND       PRES   REMARKS
RAPID CTY ARPT CLOUDY    54  33  45 NW7       29.70F
PIERRE         CLEAR     60  39  45 SW10      29.63F
CUSTER         CLOUDY    49  32  52 W12       29.85S
ELLSWORTH AFB  CLOUDY    53  32  46 W7        29.69F
PHILIP         CLOUDY    56  39  53 W7        29.65F
PINE RIDGE     CLEAR     52  36  54 W7        29.77F
SPEARFISH      FAIR      59  30  33 SW10      29.73F
WINNER         FAIR      62  40  44 SW10      29.70F
$$

SDZ004>011-016>023-039-040-240200-
NORTHEAST SOUTH DAKOTA

CITY           SKY/WX    TMP DP  RH WIND       PRES   REMARKS
ABERDEEN       CLEAR     47  38  71 S12       29.59F
WATERTOWN      CLOUDY    47  38  71 S10       29.63F
BROOKINGS      CLOUDY    49  37  63 S13       29.67F
SISSETON         N/A     54  39  57 SW20G33   29.55F
$$

SDZ017-020-022-023-036>040-048>070-240200-
SOUTHEAST SOUTH DAKOTA

CITY           SKY/WX    TMP DP  RH WIND       PRES   REMARKS
SIOUX FALLS    CLOUDY    56  40  55 S12       29.70F
HURON          CLEAR     51  40  65 S10       29.63F
CHAMBERLAIN    CLEAR     55  41  59 CALM      29.67F
MITCHELL       PTCLDY    58  42  55 S10       29.67F
YANKTON        CLOUDY    61  42  49 S8        29.72F
$$

ABBREVIATIONS USED IN REMARKS
   TC - TEMPERATURE IN CELSIUS
  WCI - WIND CHILL INDEX
   HX - HEAT INDEX
  VSB - VISIBILITY





USA.gov is the U.S. government's official web portal to all federal, state and local government web resources and services.